Zurück zum Katalog

FENGYUN 1C DEB

AktivPO
NORAD 30073·DEBRIS·🇨🇳 China

Gestartet May 10, 1999 von Taiyuan Satellite Launch Center

Loading…

Nächste Überflüge (nächste 24 Stunden)

TLE

AktuellSource: Space-Track

Epoche: Sep 14, 2026, 23:01 UTC

1 30073U 99025QA  26257.95957699  .00001788  00000-0  85064-3 0  9999
2 30073  99.4284 253.5466 0051200 221.1224 171.6372 14.20140440  8391

Verfolge FENGYUN 1C DEB in Echtzeit mit AllMySat

Download on the App Store